DW6248 Moretonhampstad UK current weather conditions

sailwx.info

Wind from 131

Air temperature 17.8° C
Dewpoint 16.1° C

Last reported at 2019-Sep-16 15:00 UTC.
Time now 2019-Sep-16 16:08 UTC

Location: N 50°40' W 003°46'.
View on Google Maps.

See reports from other nearby stations

  
Tides and Currents Weather Stations Pressure Air Temp Water Temp Dewpoint Dewpoint Depression Visibility Wind Speed Wind Dir Waves Ship Positions
date/time (UTC)wind fromknots sea level pressurealtimeterstation pressurevisibilityair tempwater tempwave heightnotes
2019-Sep-16 15:00 131 17.8
2019-Sep-16 14:45 129 17.8
2019-Sep-16 14:30 134 17.8
2019-Sep-16 14:15 134 17.8
2019-Sep-16 14:00 134 18.3
2019-Sep-16 13:45 129 18.3
2019-Sep-16 13:30 134 18.3
2019-Sep-16 13:16 130 17.8
2019-Sep-16 13:02 135 17.8
2019-Sep-16 12:47 121 17.2
2019-Sep-16 12:31 130 17.2
2019-Sep-16 12:16 127 16.7
2019-Sep-16 12:01 124 16.7
2019-Sep-16 11:46 110 16.1
2019-Sep-16 11:32 129 16.1
2019-Sep-16 11:15 129 16.1
2019-Sep-16 11:01 130 16.1
2019-Sep-16 10:46 131 15.6
2019-Sep-16 10:31 130 15.6
2019-Sep-16 10:16 129 15.6
2019-Sep-16 10:02 129 15.6
2019-Sep-16 09:45 130 15.6
2019-Sep-16 09:31 129 15.0
2019-Sep-16 09:16 126 15.0
2019-Sep-16 09:01 124 15.0
2019-Sep-16 08:45 127 14.4
2019-Sep-16 08:30 134 15.0
2019-Sep-16 08:15 134 14.4
2019-Sep-16 08:01 127 14.4
2019-Sep-16 07:45 122 14.4
2019-Sep-16 07:30 122 13.9
2019-Sep-16 07:15 125 13.9
2019-Sep-16 07:00 124 13.9
2019-Sep-16 06:46 124 13.9
2019-Sep-16 06:30 124 13.9
2019-Sep-16 06:15 124 13.9
2019-Sep-16 06:00 124 13.9
2019-Sep-16 05:45 124 13.3
2019-Sep-16 05:30 124 13.3
2019-Sep-16 05:15 124 13.3
2019-Sep-16 05:00 124 13.9
2019-Sep-16 04:46 127 13.9
2019-Sep-16 04:30 127 13.3
2019-Sep-16 04:15 127 13.3
2019-Sep-16 04:00 127 13.3
2019-Sep-16 03:45 128 13.3
2019-Sep-16 03:30 128 13.3
2019-Sep-16 03:15 128 13.3
2019-Sep-16 03:00 128 13.3
2019-Sep-16 02:45 128 13.3
2019-Sep-16 02:30 128 13.3
2019-Sep-16 02:15 128 13.3
2019-Sep-16 02:00 128 13.3
2019-Sep-16 01:45 128 13.3
2019-Sep-16 01:17 128 13.3
2019-Sep-16 01:01 128 13.3
2019-Sep-16 00:46 128 13.3
2019-Sep-16 00:31 128 13.3
2019-Sep-16 00:17 128 13.3
2019-Sep-16 00:02 128 13.3
2019-Sep-15 23:47 128 13.9
2019-Sep-15 23:31 128 13.9
2019-Sep-15 23:16 128 13.9
2019-Sep-15 23:02 131 13.9
2019-Sep-15 22:46 131 13.9
2019-Sep-15 22:32 131 13.9
2019-Sep-15 22:16 131 13.9
2019-Sep-15 22:01 131 13.9
2019-Sep-15 21:46 131 13.9
2019-Sep-15 21:31 131 13.9
2019-Sep-15 21:16 131 13.9
2019-Sep-15 21:01 131 13.9
2019-Sep-15 20:46 131 13.9
2019-Sep-15 20:31 134 13.9
2019-Sep-15 20:16 129 14.4
2019-Sep-15 20:01 132 14.4
2019-Sep-15 19:47 132 14.4
2019-Sep-15 19:31 132 14.4
2019-Sep-15 19:16 132 14.4
2019-Sep-15 19:01 132 14.4
2019-Sep-15 18:45 132 14.4
2019-Sep-15 18:30 132 15.0
2019-Sep-15 18:16 131 15.0
2019-Sep-15 18:01 131 15.0
2019-Sep-15 17:46 139 15.0
2019-Sep-15 17:31 139 16.1
2019-Sep-15 17:16 135 16.1
2019-Sep-15 17:01 134 16.7
2019-Sep-15 16:46 126 17.2
2019-Sep-15 16:31 127 17.8
2019-Sep-15 16:15 130 18.9
2019-Sep-15 16:01 132 19.4
2019-Sep-15 15:46 141 19.4
2019-Sep-15 15:31 127 20.0
2019-Sep-15 15:15 130 20.6
2019-Sep-15 15:01 131 20.6
2019-Sep-15 14:45 124 21.1
2019-Sep-15 14:30 125 21.1
2019-Sep-15 14:16 128 21.1
2019-Sep-15 14:01 125 21.7
2019-Sep-15 13:46 122 22.2
2019-Sep-15 13:30 129 21.7
2019-Sep-15 13:15 124 22.2
2019-Sep-15 13:00 120 21.7
2019-Sep-15 12:45 123 21.7
2019-Sep-15 12:30 131 21.1
2019-Sep-15 12:15 125 20.0
2019-Sep-15 12:00 129 18.9
2019-Sep-15 11:48 129 18.3
2019-Sep-15 11:31 129 17.8
2019-Sep-15 11:17 127 17.8
2019-Sep-15 11:01 127 17.2
2019-Sep-15 10:46 124 16.7
2019-Sep-15 10:31 125 16.1
2019-Sep-15 10:16 124 16.1
2019-Sep-15 10:01 121 15.6
2019-Sep-15 09:46 116 15.6
2019-Sep-15 09:31 122 15.0
2019-Sep-15 09:16 124 15.0
2019-Sep-15 09:01 124 14.4
2019-Sep-15 08:45 124 14.4
2019-Sep-15 08:31 124 13.9
2019-Sep-15 08:16 126 14.4
2019-Sep-15 08:01 115 13.9
2019-Sep-15 07:46 124 13.3
2019-Sep-15 07:30 121 13.3
2019-Sep-15 07:15 121 13.3
2019-Sep-15 07:01 121 12.8
2019-Sep-15 06:45 122 12.8
2019-Sep-15 06:30 121 12.8
2019-Sep-15 06:16 121 12.8
2019-Sep-15 06:01 121 12.8
2019-Sep-15 05:45 116 12.8
2019-Sep-15 05:30 115 12.8
2019-Sep-15 05:15 115 12.8
2019-Sep-15 05:00 115 12.2
2019-Sep-15 04:45 113 11.7
2019-Sep-15 04:30 113 11.7
2019-Sep-15 04:15 110 10.6
2019-Sep-15 04:00 110 9.4
2019-Sep-15 03:45 110 9.4
2019-Sep-15 03:31 110 10.6
2019-Sep-15 03:30 110 10.6
2019-Sep-15 03:17 110 10.6
2019-Sep-15 03:01 110 10.0
2019-Sep-15 02:47 110 10.0
2019-Sep-15 02:31 110 10.6
2019-Sep-15 02:17 110 10.6
2019-Sep-15 02:01 110 10.6
2019-Sep-15 01:46 110 10.0
2019-Sep-15 01:31 110 10.0
2019-Sep-15 01:16 110 9.4
2019-Sep-15 01:01 110 9.4
2019-Sep-15 00:46 110 8.9
2019-Sep-15 00:30 110 8.9
2019-Sep-15 00:15 110 8.9
2019-Sep-15 00:01 110 9.4
2019-Sep-14 23:46 110 8.9
2019-Sep-14 23:32 110 10.0
2019-Sep-14 23:01 110 8.9
2019-Sep-14 22:46 110 8.9
2019-Sep-14 22:31 110 9.4
2019-Sep-14 22:16 110 9.4
2019-Sep-14 22:00 110 9.4
2019-Sep-14 21:45 110 9.4
2019-Sep-14 21:31 110 9.4
2019-Sep-14 21:16 110 10.0
2019-Sep-14 21:00 110 10.0
2019-Sep-14 20:45 110 11.1
2019-Sep-14 20:30 110 11.7
2019-Sep-14 20:16 110 12.2
2019-Sep-14 20:01 110 12.2
2019-Sep-14 19:46 110 12.8
2019-Sep-14 19:30 110 13.3
2019-Sep-14 19:15 110 13.9
2019-Sep-14 19:00 117 14.4
2019-Sep-14 18:45 117 15.0
2019-Sep-14 18:30 123 15.6
2019-Sep-14 18:15 143 16.7
2019-Sep-14 18:00 143 17.8
2019-Sep-14 17:45 101 19.4
2019-Sep-14 17:30 125 20.0
2019-Sep-14 17:15 115 21.1
2019-Sep-14 17:00 114 22.8
2019-Sep-14 16:45 114 22.8
2019-Sep-14 16:30 129 22.8
2019-Sep-14 16:15 129 22.2
2019-Sep-14 16:00 129 22.2